Weather History for Springfield, VT

Change the Weather History Date:

Wednesday, August 7, 2013

  Actual Average Record
Temperature  
Mean Temperature 66 °F 68 °F  
Max Temperature 79 °F 80 °F 93 °F (2001)
Min Temperature 52 °F 56 °F 43 °F (1997)
Degree Days  
Heating Degree Days 0 1  
Month to date heating degree days 7  
Since 1 June heating degree days 120  
Since 1 July heating degree days 24  
Cooling Degree Days 1 4  
Month to date cooling degree days 9 28  
Year to date cooling degree days 375 243  
Since 1 June cooling degree days 351 231  
Growing Degree Days 15 (Base 50)    
Moisture  
Dew Point 55 °F    
Average Humidity 70    
Maximum Humidity 100    
Minimum Humidity 39    
Precipitation  
Precipitation T in 0.13 in 0.40 in (2014)
Month to date precipitation 0.35 0.95  
Year to date precipitation 23.56 25.54  
Sea Level Pressure  
Sea Level Pressure 30.14 in    
Wind  
Wind Speed 4 mph (SSE)    
Max Wind Speed 14 mph    
Max Gust Speed 20 mph    
Visibility 10 miles    
Events      
T = Trace of Precipitation, MM = Missing Value Source: NWS Daily Summary

Daily Weather History Graph

Daily Weather History Graph

Search for Another Location

Airport:

Trip Planner

Search our weather history database for the weather conditions in past years. The results will help you decide how hot, cold, wet, or windy it might be!

Date:

Astronomy

Aug. 07, 2013 Rise Set
Actual Time 5:46 AM EDT 8:04 PM EDT
Civil Twilight 5:14 AM EDT 8:35 PM EDT
Nautical Twilight 4:35 AM EDT 9:14 PM EDT
Astronomical Twilight 3:51 AM EDT 9:58 PM EDT
Moon 6:35 AM EDT (8/7) 8:05 PM EDT (8/7)
Length of Visible Light 15h 20m
Length of Day
14h 17m
New Moon, 1% of the Moon is Illuminated
Aug 7
New Moon
Aug 14
First Quarter
Aug 20
Full
Aug 28
Last Quarter
Sep 5
New

Hourly Weather History & Observations

Time (EDT) Temp. Dew Point Humidity Pressure Visibility Wind Dir Wind Speed Gust Speed Precip Events Conditions
12:54 AM 53.1 °F 52.0 °F 96% 30.17 in 10.0 mi Calm Calm - N/A   Clear
1:54 AM 52.0 °F 51.1 °F 97% 30.17 in 10.0 mi Calm Calm - N/A   Clear
2:54 AM 53.1 °F 51.1 °F 93% 30.18 in 10.0 mi Calm Calm - N/A   Mostly Cloudy
3:54 AM 53.1 °F 52.0 °F 96% 30.18 in 10.0 mi Calm Calm - N/A   Overcast
4:54 AM 54.0 °F 52.0 °F 93% 30.18 in 10.0 mi Calm Calm - N/A   Overcast
5:54 AM 54.0 °F 53.1 °F 97% 30.18 in 10.0 mi Calm Calm - N/A   Overcast
6:54 AM 55.0 °F 53.1 °F 93% 30.18 in 10.0 mi Calm Calm - N/A   Overcast
7:54 AM 57.0 °F 54.0 °F 89% 30.19 in 10.0 mi Calm Calm - N/A   Overcast
8:54 AM 60.1 °F 55.9 °F 86% 30.19 in 10.0 mi Calm Calm - N/A   Overcast
9:54 AM 64.0 °F 57.9 °F 80% 30.19 in 10.0 mi Calm Calm - N/A   Partly Cloudy
10:54 AM 70.0 °F 60.1 °F 71% 30.17 in 10.0 mi Variable 5.8 mph - N/A   Clear
11:54 AM 73.9 °F 57.9 °F 57% 30.14 in 10.0 mi SE 8.1 mph - N/A   Partly Cloudy
12:54 PM 75.9 °F 55.0 °F 48% 30.14 in 10.0 mi SE 11.5 mph 18.4 mph N/A   Partly Cloudy
1:54 PM 75.0 °F 52.0 °F 44% 30.14 in 10.0 mi South 8.1 mph - N/A   Scattered Clouds
2:54 PM 78.1 °F 51.1 °F 39% 30.13 in 10.0 mi SSW 6.9 mph - N/A   Overcast
3:54 PM 77.0 °F 53.1 °F 43% 30.11 in 10.0 mi South 9.2 mph - N/A   Mostly Cloudy
4:54 PM 75.0 °F 53.1 °F 46% 30.11 in 10.0 mi South 9.2 mph - N/A   Overcast
5:54 PM 75.0 °F 54.0 °F 48% 30.09 in 10.0 mi South 8.1 mph - N/A   Partly Cloudy
6:54 PM 73.0 °F 55.0 °F 53% 30.09 in 10.0 mi South 5.8 mph - N/A   Scattered Clouds
7:54 PM 70.0 °F 55.9 °F 61% 30.07 in 10.0 mi SE 4.6 mph - N/A   Scattered Clouds
8:54 PM 68.0 °F 55.9 °F 65% 30.09 in 10.0 mi Calm Calm - N/A   Partly Cloudy
9:54 PM 66.9 °F 57.9 °F 73% 30.10 in 10.0 mi Calm Calm - N/A   Overcast
10:54 PM 66.0 °F 59.0 °F 78% 30.09 in 10.0 mi Calm Calm - 0.00 in   Overcast
11:54 PM 66.0 °F 60.1 °F 81% 30.09 in 10.0 mi South 3.5 mph - N/A   Overcast